www.pogodaiklimat.ru

Погода и климат >> Архив погоды >> Пакистан >> Бахавалнагар


ПОГОДА в Бахавалнагаре

  • Прогноз погоды в Бахавалнагаре
  • Монитор погоды в Бахавалнагаре

АРХИВ ПОГОДЫ в Бахавалнагаре

Время (UTC), дата Ветер
(напр.,м/с)
 
Видим.   Явления Облачность Т
(С)
Тd
(С)
f
(%)
Тe
(С)
Тes
(С)
Комфортность P
(гПа)
Po
(гПа)
Тmin
(С)
Tmax
(С)
R
(мм)
R24
(мм)
S
(см)
15 18.06 ЮВ 1 4000 м 8/4 1200 м
[Sc diur, vesp Ac und]
+35.0 +18.3 37 +39 +39 очень
душно
999.0 981.1
18 18.06 штиль 0 4000 м 9/4 1200 м
[Sc diur, vesp Ac und]
+32.0 +18.2 44 +37 +37 очень
душно
1000.3 982.2
21 18.06 штиль 0 4000 м 9/4 1200 м
[Sc diur, vesp Ac und]
+30.0 +18.5 50 +35 +35 очень
душно
999.3 1000.0
00 19.06 штиль 0 4000 м 9/4 1200 м
[Sc diur, vesp Ac und]
+28.0 +17.9 54 +32 +32 душно 998.6 1000.0
03 19.06 штиль 0 4000 м ясно +31.0 +17.9 46 +35 +45 очень
душно
1000.2 982.0 +27.0
06 19.06 штиль 0 4000 м ясно +36.5 +16.3 30 +39 +66 опасность
солнечного
удара
1001.0 983.2
09 19.06 СВ 1 4000 м 5/5 1200 м
[Sc diur, vesp]
+39.5 +17.6 28 +42 +53 опасность
перегрева
999.3 981.7
12 19.06 штиль 0 4000 м 3/3 1200 м
[Sc diur, vesp]
+39.5 +17.6 28 +42 +46 опасность
перегрева
997.6 1000.0 +40.5
15 19.06 штиль 0 4000 м ясно +35.0 +20.2 42 +41 +41 опасность
перегрева
998.7 1000.0
18 19.06 штиль 0 4000 м ясно +32.0 +20.0 49 +38 +38 очень
душно
1000.1 982.0
21 19.06 штиль 0 4000 м ясно +29.0 +19.1 55 +34 +34 очень
душно
999.3 1000.0
00 20.06 штиль 0 4000 м ясно +28.0 +18.8 57 +33 +33 очень
душно
998.5 1000.0
03 20.06 штиль 0 4000 м ясно +32.0 +18.2 44 +37 +46 очень
душно
1000.2 982.1 +27.0
06 20.06 ЮЗ 1 4000 м 4/0
[Ac und]
+38.0 +16.4 28 +40 +59 опасность
солнечного
удара
1002.0 1000.0
09 20.06 ЮЗ 1 4000 м ясно +41.0 +15.5 23 +42 +63 опасность
перегрева
1000.6 983.0
12 20.06 СЗ 2 4000 м 4/0
[Ac und]
+39.5 +16.5 26 +42 +45 опасность
перегрева
998.9 1000.0 +41.5
15 20.06 штиль 0 4000 м 4/0
[Ac und]
+35.5 +17.0 33 +38 +38 очень
душно
1000.0 982.1
18 20.06 СЗ 4 2000 м в посл. час морось 10/5 1200 м
[Sc diur, vesp Ac und]
+27.0 +21.0 70 +34 +34 очень
душно
1004.0 1000.0 0.0
21 20.06 СВ 2 4000 м 10/5 1200 м
[Sc diur, vesp Ac und]
+25.0 +20.5 76 +31 +31 очень
душно
1003.2 1000.0
00 21.06 СЗ 1 4000 м 9/5 1200 м
[Sc diur, vesp Ac und]
+24.5 +19.9 76 +30 +30 очень
душно
1002.2 983.6
03 21.06 штиль 0 4000 м 5/0
[Ac und]
+27.0 +19.3 63 +33 +39 очень
душно
1003.8 1000.0 +24.1
06 21.06 ЮВ 1 4000 м 5/0
[Ac und]
+33.5 +16.3 36 +36 +53 опасность
солнечного
удара
1004.7 1000.0
09 21.06 З 1 4000 м ясно +37.5 +18.8 34 +42 +65 опасность
перегрева
1003.1 1000.0
12 21.06 С 1 4000 м ясно +39.0 +18.9 31 +43 +48 опасность
перегрева
1000.3 1000.0 +39.5
15 21.06 З 1 4000 м ясно +35.5 +19.0 38 +40 +40 очень
душно
1001.0 1000.0
18 21.06 штиль 0 4000 м ясно +33.5 +19.2 43 +39 +39 очень
душно
1002.0 1000.0
21 21.06 штиль 0 4000 м ясно +31.0 +18.8 48 +36 +36 очень
душно
1001.4 1000.0
00 22.06 штиль 0 4000 м ясно +28.5 +18.5 55 +34 +34 очень
душно
1000.4 1000.0
03 22.06 штиль 0 4000 м 5/0 300 м
[Ac und]
+32.0 +17.2 41 +36 +42 очень
душно
1002.1 1000.0 +28.1
06 22.06 штиль 0 4000 м 5/0
[Ac und]
+38.0 +15.3 26 +39 +57 опасность
солнечного
удара
1002.7 1000.0
09 22.06 З 1 4000 м ясно +41.5 +16.3 23 +43 +66 опасность
перегрева
1001.5 1000.0
12 22.06 СЗ 1 4000 м ясно +41.0 +16.6 24 +43 +48 опасность
перегрева
998.3 1000.0 +42.1
15 22.06 штиль 0 4000 м ясно +36.0 +18.7 36 +40 +40 очень
душно
999.2 1000.0
18 22.06 штиль 0 4000 м ясно +33.0 +18.5 42 +38 +38 очень
душно
1000.6 1000.0
21 22.06 штиль 0 4000 м ясно +30.0 +19.4 53 +36 +36 очень
душно
999.9 1000.0
00 23.06 штиль 0 4000 м ясно +28.0 +18.8 57 +33 +33 очень
душно
999.1 1000.0
03 23.06 штиль 0 4000 м ясно +32.0 +18.2 44 +37 +46 очень
душно
1000.9 1000.0 +27.1
06 23.06 штиль 0 4000 м ясно +39.0 +17.9 29 +42 +70 опасность
перегрева
1000.9 1000.0
09 23.06 Ю 1 4000 м 4/4 1200 м
[Sc diur, vesp]
+43.5 +14.9 19 +44 +58 опасность
перегрева
999.3 1000.0
12 23.06 СЗ 2 4000 м 5/5 1200 м
[Sc diur, vesp]
+43.0 +16.4 22 +45 +47 опасность
перегрева
997.1 979.7 +44.5
15 23.06 СЗ 1 4000 м пыльный позёмок ясно +34.0 +19.9 44 +40 +40 очень
душно
999.4 1000.0
18 23.06 СЗ 4 4000 м 5/5 1200 м
[Sc diur, vesp]
+30.0 +20.3 56 +37 +37 очень
душно
1003.1 984.8
21 23.06 СВ 1 4000 м ясно +28.5 +20.2 61 +35 +35 очень
душно
1002.1 983.8
00 24.06 СВ 1 4000 м 10/5 1200 м
[Sc diur, vesp Ac und]
+28.0 +20.5 64 +35 +35 очень
душно
1001.4 1000.0
03 24.06 В 1 4000 м в посл. час дождь 9/5 1200 м
[Sc diur, vesp Ac und]
+26.0 +21.5 76 +33 +35 очень
душно
1003.7 1000.0 +27.1 2
06 24.06 СЗ 1 4000 м 8/4 1200 м
[Sc diur, vesp Ac und]
+28.5 +21.9 67 +37 +45 очень
душно
1005.7 1000.0
09 24.06 СВ 1 4000 м 8/4 1200 м
[Sc diur, vesp Ac und]
+31.5 +20.3 51 +38 +45 очень
душно
1003.7 1000.0
12 24.06 СЗ 2 4000 м 8/4 1200 м
[Sc diur, vesp Ac und]
+32.0 +23.4 60 +43 +44 опасность
перегрева
1002.0 983.9 +32.5
15 24.06 штиль 0 4000 м 5/5
[Sc]
+30.0 +22.0 62 +39 +39 очень
душно
1003.1 1000.0
18 24.06 СВ 1 4000 м 5/5 1200 м
[Sc diur, vesp]
+29.0 +20.8 61 +36 +36 очень
душно
1005.0 1000.0
21 24.06 штиль 0 4000 м 5/5 1200 м
[Sc diur, vesp]
+28.5 +20.2 61 +35 +35 очень
душно
1004.0 1000.0
00 25.06 штиль 0 4000 м ясно +27.0 +19.3 63 +33 +33 очень
душно
1003.0 1000.0
03 25.06 СЗ 1 4000 м ясно +29.0 +19.1 55 +34 +44 очень
душно
1004.2 1000.0 +26.1
06 25.06 СВ 1 4000 м ясно +34.0 +18.0 39 +38 +64 опасность
солнечного
удара
1004.6 1000.0
09 25.06 СВ 1 4000 м 5/5
[Sc diur, vesp]
+38.0 +17.5 30 +41 +52 опасность
перегрева
1002.9 1000.0
12 25.06 С 1 4000 м ясно +38.5 +19.2 33 +43 +48 опасность
перегрева
1000.5 982.8 +39.5

 

Местоположение метеостанции Бахавалнагар (Пакистан): широта 29.95 долгота 73.25 высота над уровнем моря 163 м.

В архиве по умолчанию представлена погода в Бахавалнагаре за последнюю неделю. Архивные данные за месяц целиком и за предыдущие месяцы, начиная с января 2011 года, Вы можете получить, выбрав интересующий диапазон дат из раскрывающегося списка и нажав кнопку "Ввод!".


*Определитесь, кто Вы:
робот инопланетянин человек

Внимание! Время в таблицах - всемирное. Для получения местного времени необходимо прибавить поправку, которая равна 5 ч.

Смотрите также архив погоды в соседних городах и на ближайших метеорологических станциях:

Погода в Шри-Ганганагаре (Раджастхан, Индия) (62 км)
Погода в Сахивале (Пакистан) (82 км)
Погода в Окаре (Пакистан) (96 км)
Погода в Ханевале (Пакистан) (136 км)
Погода на Авиабазе Raifiqui (Пакистан) (137 км)
Погода в Тоба Тек Сингх (Пакистан) (137 км)
Погода в Бахавалпуре (Пакистан) (155 км)
Погода а Бахавалпур аэропорту (Пакистан) (155 км)
Погода в Фейсалабаде (Пакистан) (165 км)
Погода в Джанге (Пакистан) (172 км)

Пояснения к столбцам:

Ветер - указаны скорость ветра в м/с - средняя за 10 мин, порывы в срок и между сроками (в фигурных скобках) и направление, откуда дует ветер: С - северный, СВ - северо-восточный, В - восточный, ЮВ - юго-восточный, Ю - южный, ЮЗ - юго-западный, З - западный, СЗ - северо-западный.
Видимость - горизонтальная дальность видимости в метрах или километрах. При видимости от 1 до 10 км при отсутствии осадков обычно наблюдается дымка, при ухудшении видимости до 1 км и менее - туман. В сухую погоду видимость может ухудшаться дымом, пылью или мглою.
Явления - указаны атмосферные явления, наблюдавшиеся в срок или в последний час перед сроком; фигурными скобками обозначены явления, наблюдавшиеся между сроками (за 1-3 часа до срока); квадратными скобками обозначены град или гололедные отложения с указанием их диаметра в мм.
Облачность - указаны через наклонную черту общая и нижняя облачность в баллах и высота нижней границы облаков в метрах; квадратными скобками обозначены формы облаков: Ci - перистые, Cs - перисто-слоистые, Cc - перисто-кучевые, Ac - высококучевые, As - высокослоистые, Sc - слоисто-кучевые, Ns - слоисто-дождевые, Cu - кучевые, Cb - кучево-дождевые. Подробнее классификацию облаков см. в Атласе облаков (PDF).
T - Температура воздуха - температура, измеренная на высоте 2 м над землей.
Td - Температура точки росы - температура, при понижении до которой содержащийся в воздухе водяной пар достигнет насыщения.
f - Относительная влажность воздуха - влажноcть воздуха, измеренная на высоте 2 м над землей.
Te - Эффективная температура - температура, которую ощущает одетый по сезону человек в тени. Характеристика душности погоды. При расчете учитывается влияние влажности воздуха и скорости ветра на теплоощущения человека.
Tes - Эффективная температура на солнце - температура, которую ощущает человек, с поправкой на солнечный нагрев. Характеристика знойности погоды. Зависит от высоты солнца над горизонтом, облачности и скорости ветра. Ночью, в пасмурную погоду, а также при ветре 12 м/с и более поправка равна нулю.
P - Атмосферное давление - приведенное к уровню моря атмосферное давление.
Po - Атмосферное давление - измеренное на уровне метеостанции атмосферное давление.
Tmin - Минимальная температура - минимум температуры воздуха на высоте 2 м над землей.
Tmax - Максимальная температура - максимум температуры воздуха на высоте 2 м над землей.
R - Количество осадков - Количество выпавших осадков за период времени, мм. При наведении курсора мыши на число - период времени, за который выпало указанное количество осадков.
R24 - Количество осадков - Количество выпавших осадков за 24 часа, мм.
S - Снежный покров - Высота снежного покрова, см. При наведении курсора мыши на число - состояние снежного покрова и степень покрытия местности в баллах.